Regional Weather Roundup
Issued by NWS

Home | Current Version | Previous Version | Text Only | Print | Product List | Glossary Off
Versions: 1 2 3 4 5 6 7 8 9 10 11 12 13 14 15 16 17 18 19 20 21 22 23 24 25 26 27 28 29 30 31 32 33 34 35 36 37 38 39 40 41 42 43 44 45 46 47 48 49 50

000
ASUS44 KMEG 051500
RWRTN
TENNESSEE HOURLY STATE WEATHER ROUNDUP
NATIONAL WEATHER SERVICE MEMPHIS TN
1000 AM CDT TUE MAY 05 2015

TNZ002-004-019-021-049-052-054-088>092-051600-
WEST TENNESSEE

CITY           SKY/WX    TMP DP  RH WIND       PRES   REMARKS
MEMPHIS INTL   MOSUNNY   78  59  51 VRB5      30.24S
NWS MEMPHIS      N/A     78 N/A N/A MISG        N/A
JACKSON        SUNNY     76  61  59 VRB5      30.26S
DYERSBURG      SUNNY     77  54  44 SW5       30.26S
PARIS          SUNNY     75  57  53 S8        30.27S
LEXINGTON      SUNNY     73  57  56 W3        30.27S
$$

TNZ008-025-027-028-033-062-065-066-051600-
NORTH MIDDLE TENNESSEE

CITY           SKY/WX    TMP DP  RH WIND       PRES   REMARKS
NASHVILLE      SUNNY     77  56  48 S3        30.30F
CLARKSVILLE    SUNNY     76  56  49 SW8       30.28S
CROSSVILLE     SUNNY     73  51  46 CALM      30.36F
$$

TNZ061-075-076-078-094-096-097-051600-
SOUTH MIDDLE TENNESSEE

CITY           SKY/WX    TMP DP  RH WIND       PRES   REMARKS
FAYETTEVILLE     N/A     73  54  49 SW5       30.32S
TULLAHOMA      SUNNY     75  54  46 S5        30.33S
WINCHESTER     SUNNY     77  55  47 SE5       30.32S
SHELBYVILLE    SUNNY     77  59  53 S8        30.32F
$$

TNZ017-018-042-046-047-051600-
NORTHEAST TENNESSEE

CITY           SKY/WX    TMP DP  RH WIND       PRES   REMARKS
TRI CITIES     SUNNY     74  53  48 CALM      30.37S
ELIZABETHTON   SUNNY     73  52  46 SW8       30.37S
$$

TNZ012-013-036-069-073-074-051600-
CENTRAL EAST TENNESSEE

CITY           SKY/WX    TMP DP  RH WIND       PRES   REMARKS
KNOXVILLE      MOSUNNY   71  55  56 CALM      30.34F
OAK RIDGE      SUNNY     74  54  49 S7        30.36S
GATLINBURG     SUNNY     73  54  49 CALM      30.34S
$$

TNZ083-085-099-051600-
SOUTHEAST TENNESSEE

CITY           SKY/WX    TMP DP  RH WIND       PRES   REMARKS
CHATTANOOGA    SUNNY     72  55  55 SW5       30.34S
$$

SKY/WX REPORTED AS FAIR MEANS FEW OR NO CLOUDS BELOW
12 THOUSAND FEET.



USA.gov is the U.S. government's official web portal to all federal, state and local government web resources and services.